Regional Weather Roundup
Issued by NWS

Home | Current Version | Previous Version | Text Only | Print | Product List | Glossary On
Versions: 1 2 3 4 5 6 7 8 9 10 11 12 13 14 15 16 17 18 19 20 21 22 23 24 25 26 27 28 29 30 31 32 33 34 35 36 37 38 39 40 41 42 43 44 45 46 47 48 49 50
000
ASUS43 KMKX 262321
RWRWI

WISCONSIN REGIONAL WEATHER ROUNDUP
NATIONAL WEATHER SERVICE MILWAUKEE/SULLIVAN WI
600 PM CDT SAT MAY 26 2018

NOTE: "FAIR" INDICATES FEW OR NO CLOUDS BELOW 12,000 FEET WITH NO
SIGNIFICANT WEATHER AND/OR OBSTRUCTIONS TO VISIBILITY.

WIZ001-002-006>008-014>016-023>028-270000-
NORTHWEST WISCONSIN

CITY           SKY/WX    TMP DP  RH WIND       PRES   REMARKS
SUPERIOR ARPT  FAIR      51  47  83 NE9       29.70R
ASHLAND        FAIR      66  57  72 NE14      29.68R
HAYWARD        FAIR      89  51  27 VRB6      29.68S HX  86
SIREN          FAIR      92  46  20 W15       29.68S HX  88
CUMBERLAND     FAIR      86  52  30 SW12      29.70S HX  84
RICE LAKE      FAIR      91  51  25 SW10      29.71S HX  88
CHETEK         FAIR      90  55  31 SW3       29.70S HX  88
LADYSMITH      FAIR      88  54  30 W8        29.72R HX  86
EAU CLAIRE     FAIR      92  57  30 W12G20    29.68S HX  90
MENOMONIE      FAIR      89  53  28 SW9       29.69S HX  86
NEW RICHMOND   FAIR      89  53  28 CALM      29.70S HX  86
OSCEOLA        FAIR      93  52  25 SW12      29.71S HX  90
$$

WIZ003>005-009-010-017-018-270000-
NORTH CENTRAL WISCONSIN

CITY           SKY/WX    TMP DP  RH WIND       PRES   REMARKS
MANITOWISH WTR FAIR      87  53  31 W9        29.70S HX  85
ARBOR VITAE    FAIR      87  51  28 W7        29.70S HX  85
WOODRUFF       FAIR      87  51  28 W7        29.70S HX  85
RHINELANDER    FAIR      87  56  34 W9        29.71S HX  85
EAGLE RIVER    FAIR      88  43  20 W13G20    29.70R HX  85
LAND O LAKES   PTSUNNY   86  46  25 W8        29.71S HX  83
PHILLIPS       FAIR      87  54  31 SW9       29.70S HX  85
TOMAHAWK       FAIR      88  52  29 W12G18    29.71S HX  85
MEDFORD        FAIR      87  55  33 W10G18    29.71F HX  85
MERRILL        FAIR      90  56  32 W12       29.70S HX  88
$$

WIZ029-030-035-036-043>047-270000-
CENTRAL WISCONSIN

CITY           SKY/WX    TMP DP  RH WIND       PRES   REMARKS
WAUSAU         NOT AVBL
MOSINEE        MOSUNNY   88  54  31 W10       29.72S HX  86
MARSHFIELD     FAIR      88  55  32 W10       29.71S HX  86
STEVENS POINT  FAIR      89  56  32 SW7       29.70F HX  87
WAUPACA        FAIR      93  52  24 W9        29.69F HX  91
WAUTOMA        FAIR      90  59  35 SW9       29.70  HX  89
WISC RAPIDS    FAIR      90  56  31 W9G16     29.71S HX  88
CAMP DOUGLAS   FAIR      89  60  38 SW12      29.71F HX  88
$$

WIZ011>013-019>022-031-037>040-048>050-270000-
NORTHEAST WISCONSIN

CITY           SKY/WX    TMP DP  RH WIND       PRES   REMARKS
ANTIGO         FAIR      87  56  35 W14G21    29.71S HX  85
SHAWANO        FAIR      92  55  28 W8G16     29.67S HX  90
OCONTO         FAIR      88  62  42 S8        29.65F HX  88
STURGEON BAY   FAIR      78  61  55 SE14      29.69F HX  80
GREEN BAY      FAIR      91  59  33 S14       29.68F HX  90
MANITOWOC      NOT AVBL
APPLETON       MOSUNNY   88  48  25 SW9       29.69F HX  85
CLINTONVILLE   FAIR      92  50  23 SW9G16    29.67F HX  89
OSHKOSH        FAIR      89  60  37 W6        29.70F HX  89
$$

WIZ032>034-041-042-053>061-270000-
SOUTHWEST WISCONSIN

CITY           SKY/WX    TMP DP  RH WIND       PRES   REMARKS
LA CROSSE      FAIR      90  64  42 S9        29.69F HX  91
SPARTA         FAIR      90  58  33 W7        29.72S HX  88
VIROQUA        FAIR      89  59  35 SW9       29.75F HX  88
BOSCOBEL       FAIR      91  63  39 W7        29.72F HX  92
PRAIRIE DU CHI FAIR      89  60  37 S6        29.72S HX  88
PLATTEVILLE    FAIR      86  67  51 W5        29.75S HX  89
$$

WIZ056-057-062-063-064-067-068-270000-
SOUTH CENTRAL WISCONSIN

CITY           SKY/WX    TMP DP  RH WIND       PRES   REMARKS
REEDSBURG      FAIR      88  63  43 SW9       29.72S HX  89
BARABOO/DELLS  FAIR      90  57  32 SW8       29.72F HX  88
LONE ROCK      FAIR      90  64  42 MISG      29.71F HX  91
MINERAL POINT  FAIR      90  61  37 W8        29.76S HX  89
MADISON        FAIR      90  61  37 VRB3      29.71F HX  90
MIDDLETON      FAIR      91  55  29 W7        29.73F HX  89
WATERTOWN      FAIR      88  62  41 SW6       29.72F HX  88
MONROE         FAIR      88  54  31 W3        29.75F HX  86
JANESVILLE     MOSUNNY   91  54  27 W6        29.73F HX  89
$$

WIZ051-052-058>065-066-070>072-270000-
SOUTHEAST WISCONSIN

CITY           SKY/WX    TMP DP  RH WIND       PRES   REMARKS
MILWAUKEE      FAIR      82  63  52 SE8       29.72F HX  83
WAUKESHA       SUNNY     84  57  39 SW5       29.75S HX  83
MILWAUKEE/TIMM SUNNY     88  54  31 SE5       29.73F HX  86
RACINE         FAIR      79  60  52 SE10      29.75F HX  80
BURLINGTON     FAIR      89  58  35 NW7       29.73F HX  88
KENOSHA        FAIR      83  62  49 SE8       29.74F HX  84
FOND DU LAC    FAIR      89  56  32 W7        29.71S HX  87
SHEBOYGAN      FAIR      81  63  54 S8        29.72S HX  82
WEST BEND      FAIR      86  55  35 SW6       29.72F HX  84
JUNEAU         FAIR      87  60  40 S8        29.73S HX  86
$$

LSZ147-162-270000-
LAKE SUPERIOR

STATION/POSITION TIME  TEMP    WIND        PRES    WAVE
                       AIR SEA DIR/SP/G            HT/PER
                 (UTC) (F)     (DEG/KT/KT) (MB)    (FT/S)
W MID LAKE BUOY  2250   40 36   50/ 12/ 12 1005.6S   1
DEVILS ISLAND    2300   47      60/ 11/ 12 1005.9R
SAXON HARBOR     2230   53     350/  8/ 18 1005.4R
$$

LMZ867-665-643>646-270000-
LAKE MICHIGAN

STATION/POSITION TIME  TEMP    WIND        PRES    WAVE
                       AIR SEA DIR/SP/G            HT/PER
                 (UTC) (F)     (DEG/KT/KT) (MB)    (FT/S)
N MID LAKE BUOY  2300   41 38  100/  6/ 10 1008.6R
NORTHPORT PIER   2240   56      90/  3/  6 1007.8R
KEWAUNEE LAKESHO 2254          170/ 12/ 13 1005.6F
SHEBOYGAN LAKESH 2300   69     180/ 15/ 16 1005.9F
PORT WASHINGTON  2230   67     190/  5/  8 1007.8S
ATWATER BUOY     2237   60 55  210/  8/ 10 1007.2F   1/ 2
MILWAUKEE LAKESH 2300   62     100/  1/  2   N/A
S MID LAKE BUOY  2250   57 41  180/  8/  8 1007.5F   0
KENOSHA   LAKESH 2300   69                 1006.8
$$

TC  - TEMPERATURE IN CELSIUS
VSB - VISIBILITY IN STATUTE MILES
WCI - WIND CHILL INDEX
HX  - HEAT INDEX





USA.gov is the U.S. government's official web portal to all federal, state and local government web resources and services.